Wind_Speed
70 71 73 70 64 63 62 57 53 53 53 53 55 57 48 41 43 42 45 45 43 40 41 34 37 37 43 52 53 42 37 35 32 32 29 29 28 26 26 24 22 18 18 14 13
73 77 79 77 71 67 66 63 58 56 56 55 57 57 54 48 46 44 43 44 46 43 37 39 38 39 38 52 55 50 40 37 37 37 28 29 29 27 26 24 22 20 17 15 13
44 46 58 71 72 67 69 67 62 60 59 58 58 58 57 55 51 44 41 44 49 48 40 40 37 39 43 51 53 53 44 41 40 39 36 29 29 29 27 27 23 19 17 15 14
33 34 40 38 51 64 71 69 65 63 62 61 60 60 60 60 54 48 46 40 43 50 44 52 38 33 33 36 50 50 44 43 42 40 36 32 31 30 30 27 25 21 18 16 15
31 28 30 34 35 53 67 70 66 64 64 63 62 61 62 62 54 51 48 48 43 42 42 41 45 37 35 37 42 54 47 44 43 41 38 36 31 33 32 29 26 24 20 18 17
27 23 26 30 31 36 55 66 66 64 66 65 63 63 62 61 55 52 50 50 44 39 42 38 35 42 29 36 40 50 52 48 46 43 41 37 36 34 30 28 26 26 22 20 18
22 21 23 26 29 29 36 51 61 61 65 66 65 64 62 61 59 54 52 50 46 41 38 35 38 34 36 35 41 48 55 51 48 45 43 40 40 33 34 32 28 26 24 23 21
20 20 21 23 26 25 25 31 47 56 63 66 66 65 62 63 60 55 55 52 49 44 39 39 35 41 37 36 40 47 59 56 51 48 45 44 38 36 36 33 32 30 27 26 25
20 18 18 22 25 25 24 22 30 47 58 64 65 65 65 63 62 57 55 51 50 47 44 42 40 45 40 42 37 43 58 59 52 49 49 48 39 38 38 34 34 31 29 29 28
20 18 16 19 20 24 23 23 26 36 50 61 65 64 63 63 62 57 55 52 51 49 48 48 45 49 47 46 45 39 49 62 56 52 50 51 43 41 38 36 34 33 32 31 29
19 15 14 17 19 24 25 24 25 30 42 54 61 64 65 64 63 59 58 55 47 49 46 49 49 52 48 44 39 38 43 49 58 55 52 52 46 43 41 40 39 34 33 33 34
18 14 14 14 18 23 24 25 24 25 31 47 57 63 63 63 61 59 57 56 52 46 46 48 47 49 42 42 41 39 42 47 50 62 58 53 49 47 44 42 41 38 38 37 35
15 13 13 13 16 22 23 24 24 24 28 34 48 57 61 63 59 57 57 55 53 49 46 38 48 51 46 46 40 34 38 43 45 58 62 56 54 51 47 47 45 43 41 42 37
10 13 11 14 14 17 17 20 24 24 25 30 38 46 56 61 56 57 56 58 54 51 42 50 49 44 42 43 41 41 36 30 37 45 68 59 61 54 51 51 49 46 45 45 42
5 8 11 15 14 14 15 17 19 21 27 30 34 41 53 58 49 53 57 59 60 56 47 46 48 51 59 47 40 43 41 35 35 34 49 65 72 64 56 59 56 52 51 53 52
6 9 11 12 13 14 16 16 16 16 18 21 30 37 44 58 50 54 57 59 61 61 54 46 50 40 39 44 45 45 34 33 35 35 40 50 44 47 54 64 64 59 56 59 49
2 8 8 10 15 16 17 19 18 18 14 17 19 27 41 48 51 54 58 59 62 62 62 57 55 51 49 47 47 45 41 39 39 43 48 43 42 44 36 43 54 52 58 58 53
1 2 2 5 6 8 11 14 16 14 17 19 18 23 34 46 50 54 61 63 64 56 50 46 47 45 46 48 49 45 40 45 42 43 45 46 46 44 36 34 45 55 54 49 50
4 4 2 3 4 8 11 13 14 16 19 20 20 22 28 37 44 53 61 64 68 62 53 38 47 42 39 45 48 44 42 42 42 43 42 45 47 46 39 39 40 46 48 44 50
7 8 8 10 13 13 14 15 16 18 18 19 21 21 24 33 42 55 63 67 73 70 50 38 41 41 47 46 45 45 41 37 37 37 42 44 44 47 44 37 35 36 37 39 44
9 10 12 14 15 14 13 12 13 16 16 13 11 10 22 25 37 54 61 68 75 72 54 42 39 39 42 46 47 50 50 44 35 31 32 32 43 44 44 43 40 41 41 39 42
13 12 12 14 15 16 17 18 17 17 17 19 14 16 15 25 35 50 59 68 76 78 56 44 47 40 33 40 46 48 46 46 46 44 40 37 33 34 33 35 41 41 43 48 45
15 14 14 17 15 16 16 18 17 15 22 14 10 13 12 24 34 53 53 66 74 83 64 46 46 54 49 39 39 40 44 41 42 39 40 39 35 25 20 18 23 27 33 37 40
17 15 17 20 9 1 4 8 14 18 8 6 10 3 9 29 35 45 42 46 64 80 70 64 48 33 49 43 38 37 38 36 35 39 32 33 31 33 31 31 30 27 23 23 26
15 16 16 16 8 13 10 11 19 13 7 8 10 5 17 35 48 31 39 43 48 64 78 61 58 44 48 50 40 37 43 40 32 32 32 32 30 31 26 22 27 30 33 31 30
20 14 14 12 5 11 6 4 11 12 7 8 24 8 13 23 23 21 33 36 38 46 66 67 46 58 46 45 46 37 29 32 31 35 35 35 33 35 34 30 32 31 30 31 33
20 20 14 11 4 3 3 10 9 10 7 13 28 17 25 27 22 24 23 20 39 37 55 70 61 46 35 42 46 43 40 39 41 39 32 27 27 29 31 32 30 32 36 38 38
Wind_Direction
262 257 256 253 245 241 239 234 230 228 227 224 223 226 228 222 217 203 219 216 222 232 235 231 221 220 220 215 202 204 200 201 197 193 196 188 189 193 196 189 184 176 181 180 182
262 256 251 249 247 237 236 234 228 226 226 223 223 223 226 223 223 223 211 217 217 219 213 207 205 211 212 208 206 203 200 201 201 201 190 195 192 197 201 195 193 185 183 182 184
273 265 259 250 245 234 232 232 228 223 224 222 221 222 224 223 225 217 213 215 216 214 199 197 201 213 207 207 205 203 198 202 206 207 201 199 200 200 205 203 197 194 185 185 184
281 271 257 257 239 231 227 229 227 223 221 222 219 219 222 224 223 222 227 212 219 219 222 221 218 201 210 214 212 206 197 203 208 211 203 207 206 204 207 206 198 199 193 193 191
284 267 256 254 249 231 224 225 225 221 220 220 219 219 219 223 221 218 220 230 226 225 228 226 222 213 216 212 222 214 200 204 210 214 207 203 203 210 206 206 200 203 198 195 197
278 262 259 247 247 245 227 223 222 219 219 220 218 218 219 221 221 217 217 223 229 230 231 226 221 231 219 215 224 214 200 204 208 213 213 205 209 210 207 209 207 208 205 201 202
269 262 267 246 243 243 240 228 222 217 217 219 218 218 217 220 222 217 217 219 222 219 228 228 223 229 228 220 217 216 202 205 207 211 216 208 212 209 213 208 211 215 213 212 207
264 262 270 241 240 238 235 234 223 216 214 217 218 217 215 217 220 219 218 214 218 218 217 219 214 214 210 216 218 213 205 207 206 210 216 215 209 213 216 212 210 214 214 219 217
253 262 266 232 235 229 227 220 219 213 211 214 217 217 216 216 218 218 219 214 214 216 213 212 210 215 206 213 209 209 208 211 208 210 215 221 209 217 218 216 214 214 215 220 224
246 251 257 228 234 222 220 214 212 212 211 212 214 216 215 217 218 216 218 216 214 216 214 216 219 220 216 216 216 213 213 211 214 212 217 223 213 219 219 220 217 216 217 222 226
236 241 251 230 228 219 218 212 211 215 212 212 211 214 216 217 217 216 214 214 213 217 215 215 216 212 211 209 216 224 219 216 216 219 219 223 219 220 221 223 225 226 226 225 229
229 235 237 226 229 215 218 211 216 219 219 213 211 212 216 216 216 214 214 212 211 215 215 217 219 213 212 211 214 222 217 216 214 216 221 222 224 223 222 224 228 229 231 231 233
223 235 238 233 223 215 218 219 222 223 223 219 213 212 214 215 214 213 211 210 209 212 216 218 220 226 231 230 222 216 216 219 217 214 221 223 224 225 225 228 228 231 233 235 235
229 236 232 218 221 221 218 223 226 229 229 224 220 214 212 214 212 212 209 206 202 205 212 217 214 220 222 227 233 228 224 214 220 216 220 221 227 225 228 232 234 233 237 242 242
238 224 196 189 207 217 218 223 225 227 228 225 221 216 211 213 208 208 206 204 201 200 207 214 218 219 223 221 227 235 231 234 232 227 223 224 230 230 231 233 236 241 238 240 245
137 166 185 186 198 213 216 222 229 225 233 227 228 220 217 212 206 205 204 205 203 202 201 205 209 212 214 215 220 234 229 234 236 229 225 221 227 235 242 242 240 243 242 248 252
169 196 198 194 210 220 230 232 230 226 235 241 236 228 221 215 207 203 201 202 200 203 205 215 225 230 227 218 216 225 232 230 230 229 225 226 228 240 246 244 241 242 242 247 251
76 217 210 206 210 229 238 241 243 238 235 245 249 237 224 217 210 203 199 196 194 197 204 215 218 213 215 213 216 216 227 230 232 231 228 225 228 236 238 242 238 238 242 250 246
330 317 250 234 267 274 268 262 255 252 247 246 249 243 231 222 216 205 200 195 188 191 199 209 214 216 210 214 215 214 221 236 236 231 232 231 231 233 239 238 232 236 240 243 236
286 282 277 263 279 275 264 262 260 252 248 248 249 250 236 228 216 208 198 195 190 193 195 194 201 200 208 216 216 215 219 224 225 230 233 235 231 234 240 237 234 232 240 241 247
321 301 285 281 274 264 260 253 259 244 237 234 211 252 236 228 217 205 199 195 192 193 191 197 195 207 213 213 214 212 212 222 224 220 229 238 242 240 243 242 239 234 241 243 241
355 333 309 291 272 265 255 253 250 233 243 201 204 221 236 235 215 201 198 195 196 197 197 204 205 196 204 214 219 219 226 229 236 233 243 245 234 232 236 239 238 238 239 243 241
351 351 347 336 296 272 260 247 232 211 195 224 252 258 289 213 211 191 196 196 202 198 196 200 205 213 213 215 216 227 229 232 237 238 229 229 228 232 233 237 240 240 242 246 250
358 351 349 350 342 226 172 200 182 170 156 278 267 94 214 197 190 184 189 197 202 205 209 206 201 213 212 213 211 208 213 221 224 216 230 231 238 245 257 259 258 264 267 270 272
354 354 3 9 99 60 90 103 177 212 143 273 19 50 175 195 179 180 190 187 196 205 204 205 210 208 199 214 214 210 213 216 221 235 240 253 261 268 274 274 277 279 280 281 276
7 354 5 22 69 102 96 141 196 189 252 55 54 140 176 202 188 187 181 206 201 200 204 202 208 214 204 201 204 213 225 226 240 249 248 257 268 275 278 271 281 280 276 269 271
6 12 11 32 107 184 180 172 219 240 254 42 72 141 159 171 173 170 174 197 194 199 205 202 201 202 228 229 234 239 238 248 254 258 254 256 263 258 260 265 265 258 254 256 260
Height
5635 5636 5636 5640 5645 5652 5659 5666 5675 5682 5689 5695 5701 5706 5713 5722 5729 5735 5741 5748 5752 5758 5762 5768 5773 5779 5784 5789 5795 5802 5810 5816 5821 5825 5828 5832 5837 5840 5844 5846 5846 5847 5850 5853 5856
5605 5608 5612 5616 5624 5633 5641 5651 5661 5669 5677 5685 5691 5698 5704 5714 5721 5728 5735 5738 5745 5752 5756 5762 5767 5773 5776 5784 5790 5796 5805 5813 5816 5821 5827 5830 5835 5839 5842 5845 5846 5846 5849 5851 5854
5586 5585 5586 5592 5601 5612 5623 5634 5646 5656 5664 5672 5681 5688 5695 5704 5713 5723 5724 5733 5739 5745 5750 5755 5761 5767 5773 5779 5785 5791 5802 5807 5811 5816 5824 5828 5832 5836 5839 5842 5846 5847 5848 5850 5853
5576 5576 5576 5576 5581 5592 5605 5617 5629 5641 5651 5659 5669 5678 5686 5693 5705 5714 5719 5725 5730 5737 5742 5749 5756 5762 5769 5774 5781 5788 5796 5802 5807 5812 5820 5826 5830 5834 5837 5840 5844 5845 5847 5849 5852
5567 5567 5567 5569 5571 5575 5588 5601 5614 5627 5638 5647 5657 5667 5676 5685 5698 5706 5713 5717 5724 5730 5736 5742 5750 5757 5763 5768 5774 5783 5791 5798 5803 5809 5815 5822 5826 5831 5834 5837 5842 5844 5846 5847 5850
5560 5561 5561 5563 5565 5568 5574 5585 5599 5612 5625 5635 5646 5656 5666 5678 5687 5697 5705 5711 5718 5723 5730 5737 5744 5749 5756 5761 5768 5779 5785 5792 5797 5803 5811 5817 5822 5827 5831 5835 5839 5841 5844 5846 5848
5555 5557 5556 5558 5560 5563 5566 5573 5586 5599 5612 5624 5635 5645 5657 5668 5676 5687 5697 5704 5713 5719 5725 5731 5738 5746 5752 5756 5762 5770 5779 5785 5791 5797 5804 5811 5818 5825 5827 5831 5834 5839 5841 5845 5846
5551 5553 5552 5554 5557 5559 5562 5568 5577 5589 5602 5613 5624 5635 5649 5657 5667 5678 5688 5698 5705 5712 5720 5727 5733 5740 5746 5752 5757 5763 5773 5777 5785 5790 5798 5804 5813 5820 5824 5827 5829 5834 5837 5841 5843
5546 5549 5549 5551 5554 5556 5560 5565 5571 5580 5591 5602 5614 5626 5638 5649 5659 5668 5679 5689 5697 5704 5712 5720 5726 5732 5739 5747 5751 5756 5765 5773 5780 5785 5792 5797 5809 5813 5819 5823 5826 5830 5833 5836 5839
5543 5545 5546 5549 5551 5554 5558 5562 5567 5574 5582 5592 5603 5621 5633 5642 5650 5661 5672 5680 5689 5696 5704 5712 5719 5725 5732 5739 5745 5752 5758 5767 5774 5781 5786 5791 5803 5808 5813 5818 5822 5824 5827 5831 5834
5540 5543 5544 5546 5549 5553 5557 5561 5567 5572 5577 5586 5599 5610 5617 5628 5638 5651 5661 5670 5681 5689 5696 5705 5712 5721 5728 5736 5744 5748 5753 5762 5772 5777 5781 5785 5795 5802 5807 5813 5817 5820 5824 5827 5828
5538 5541 5542 5544 5547 5551 5555 5559 5564 5570 5574 5580 5590 5599 5608 5617 5631 5641 5653 5664 5674 5682 5690 5698 5706 5715 5722 5727 5735 5740 5745 5752 5760 5768 5773 5779 5788 5794 5800 5806 5811 5814 5817 5820 5823
5537 5539 5541 5543 5546 5550 5554 5558 5562 5566 5571 5577 5583 5590 5598 5610 5622 5633 5645 5657 5666 5675 5684 5693 5699 5706 5713 5721 5727 5734 5741 5747 5753 5760 5768 5773 5779 5784 5793 5799 5803 5806 5810 5813 5816
5537 5538 5540 5543 5547 5549 5554 5557 5560 5564 5567 5573 5577 5584 5594 5601 5615 5624 5636 5649 5659 5670 5681 5684 5692 5699 5708 5717 5723 5729 5737 5742 5745 5752 5757 5765 5767 5776 5784 5791 5796 5800 5803 5807 5811
5536 5537 5539 5542 5546 5549 5553 5555 5558 5561 5563 5569 5573 5580 5586 5597 5609 5617 5626 5638 5652 5663 5673 5679 5686 5692 5700 5710 5716 5723 5729 5735 5741 5745 5749 5757 5761 5768 5776 5780 5787 5794 5797 5799 5803
5539 5539 5541 5543 5546 5549 5551 5554 5556 5561 5561 5565 5569 5574 5579 5587 5597 5608 5619 5632 5645 5654 5662 5670 5679 5686 5696 5704 5711 5716 5724 5730 5735 5739 5742 5751 5756 5760 5767 5773 5779 5786 5790 5791 5794
5542 5542 5542 5544 5547 5548 5550 5552 5555 5556 5561 5563 5564 5567 5571 5578 5589 5599 5611 5624 5636 5647 5657 5665 5670 5679 5688 5696 5703 5711 5718 5723 5727 5730 5735 5742 5747 5751 5757 5760 5766 5773 5778 5782 5784
5544 5544 5544 5545 5546 5548 5549 5552 5553 5555 5556 5558 5559 5561 5565 5571 5579 5590 5599 5612 5627 5642 5653 5660 5668 5671 5680 5688 5698 5704 5710 5715 5719 5724 5730 5734 5739 5744 5750 5752 5756 5762 5768 5773 5776
5547 5546 5545 5545 5546 5547 5548 5549 5550 5551 5552 5553 5555 5556 5559 5564 5571 5581 5593 5607 5620 5635 5647 5654 5660 5669 5675 5683 5692 5697 5704 5711 5714 5719 5724 5729 5734 5739 5745 5747 5750 5754 5760 5765 5770
5546 5545 5545 5544 5544 5544 5545 5545 5546 5547 5548 5549 5551 5553 5555 5558 5564 5573 5586 5601 5614 5627 5637 5648 5656 5663 5670 5676 5684 5692 5701 5705 5707 5711 5716 5721 5726 5730 5735 5738 5743 5748 5752 5755 5759
5546 5544 5543 5541 5540 5540 5540 5541 5542 5543 5544 5546 5547 5548 5550 5554 5559 5568 5582 5596 5607 5619 5631 5642 5651 5659 5665 5669 5678 5686 5691 5698 5704 5706 5710 5715 5721 5725 5727 5731 5735 5740 5744 5747 5750
5544 5542 5540 5538 5537 5535 5535 5535 5537 5538 5540 5543 5544 5546 5546 5548 5553 5563 5576 5591 5603 5614 5628 5636 5645 5652 5660 5667 5675 5683 5688 5693 5696 5702 5706 5711 5717 5718 5722 5724 5728 5733 5738 5741 5742
5544 5541 5538 5534 5529 5527 5528 5529 5531 5535 5538 5541 5541 5543 5543 5543 5550 5561 5574 5585 5596 5608 5619 5631 5639 5648 5656 5664 5668 5675 5682 5687 5692 5697 5701 5706 5711 5713 5716 5719 5722 5725 5729 5732 5732
5543 5540 5536 5530 5525 5524 5525 5526 5530 5535 5538 5539 5538 5538 5538 5542 5549 5562 5574 5583 5592 5602 5611 5625 5638 5645 5653 5659 5667 5672 5678 5682 5688 5691 5693 5698 5702 5705 5709 5712 5716 5720 5722 5724 5727
5542 5540 5536 5532 5529 5528 5527 5530 5533 5535 5537 5538 5539 5535 5538 5545 5553 5564 5569 5579 5588 5596 5606 5622 5633 5640 5645 5655 5662 5667 5673 5676 5680 5684 5687 5692 5694 5699 5705 5707 5710 5714 5717 5720 5723
5543 5540 5538 5535 5533 5531 5532 5533 5534 5536 5537 5539 5535 5536 5542 5548 5558 5563 5572 5578 5586 5592 5604 5616 5628 5635 5642 5645 5652 5658 5662 5668 5676 5679 5684 5688 5691 5696 5700 5703 5706 5710 5712 5714 5715
5546 5542 5539 5537 5535 5535 5535 5537 5536 5538 5540 5537 5535 5539 5544 5552 5559 5565 5572 5578 5587 5594 5602 5613 5621 5628 5635 5641 5646 5653 5660 5666 5671 5675 5678 5683 5687 5690 5693 5696 5700 5702 5704 5705 5707